Stations météo

réclame
Mon MeteoGroup
Arkona, Allemagne (10091): Température de l'air & dewpoint: 19.02.2018 10:00:00 - 25.02.2018 10:00:00 (CET)Arkona, Allemagne (10091): Température de l'air 5cm & Température de l'air -5cm: 19.02.2018 10:00:00 - 25.02.2018 10:00:00 (CET)Arkona, Allemagne (10091): Température de l'air -20cm & Température de l'air -100cm: 19.02.2018 10:00:00 - 25.02.2018 10:00:00 (CET)Arkona, Allemagne (10091): water temperature: 19.02.2018 10:00:00 - 25.02.2018 10:00:00 (CET)Arkona, Allemagne (10091): Vitesse du vent & gusts: 19.02.2018 10:00:00 - 25.02.2018 10:00:00 (CET)Arkona, Allemagne (10091): Direction du vent: 19.02.2018 10:00:00 - 25.02.2018 10:00:00 (CET)Arkona, Allemagne (10091): reduced air pressure: 19.02.2018 10:00:00 - 25.02.2018 10:00:00 (CET)Arkona, Allemagne (10091): visibility: 19.02.2018 10:00:00 - 25.02.2018 10:00:00 (CET)Arkona, Allemagne (10091): Ensoleillement: 19.02.2018 10:00:00 - 25.02.2018 10:00:00 (CET)Arkona, Allemagne (10091): Quantités de précipitations: 19.02.2018 10:00:00 - 25.02.2018 10:00:00 (CET)
Date & Time tt [°C] td [°C] tt 5cm [°C] tt -5cm [°C] tt -20cm [°C] tt -100cm [°C] tw [°C] ff [km/h] ff [knt] fx [km/h] fx [knt] dd ppp [hPa] vv [km] sd [min] rr [mm]
25.02.2018 10:00:00 -2,3 -5,2 -1,8 -0,2 0,7 3,8 3,0 43 23 57 31 NE 1033,8 6 0 0,0
25.02.2018 09:00:00 -2,4 -5,7 -2,8 -0,3 0,7 3,8 3,0 39 21 55 30 NE 1033,8 29 0 0,1
25.02.2018 08:00:00 -3,4 -4,1 -3,3 -0,4 0,7 3,8 3,0 32 17 53 29 NE 1034,1 3,0 0 0,3
25.02.2018 07:00:00 -2,3 -5,0 -3,0 -0,4 0,7 3,8 3,0 42 23 51 28 NE 1033,9 49 0 0,0
25.02.2018 06:00:00 -2,1 -5,8 -2,8 -0,4 0,7 3,8 3,0 32 17 48 26 NE 1033,9 60 0 0,0
25.02.2018 05:00:00 -2,2 -5,6 -3,1 -0,3 0,7 3,8 3,0 30 16 46 25 NE 1034,0 57 0 0,0
25.02.2018 04:00:00 -2,8 -4,3 -3,3 -0,3 0,7 3,8 3,1 24 13 45 24 E 1034,4 41 0 0,1
25.02.2018 03:00:00 -3,0 -3,5 -2,9 -0,4 0,7 3,8 3,1 31 17 43 23 ENE 1034,7 0,8 0 0,3
25.02.2018 02:00:00 -2,3 -6,0 -2,8 -0,5 0,8 3,8 3,0 23 13 39 21 ENE 1035,1 48 0 0,0
25.02.2018 01:00:00 -2,8 -4,5 -2,9 -0,5 0,8 3,8 3,1 24 13 41 22 E 1035,3 13 0 0,0
25.02.2018 00:00:00 -2,2 -7,4 -2,6 -0,5 0,8 3,8 3,1 27 15 48 26 ENE 1035,2 52 0 0,0
24.02.2018 23:00:00 -2,3 -7,7 -3,3 -0,3 0,8 3,8 3,1 34 19 53 29 ENE 1035,1 61 0 0,0
24.02.2018 22:00:00 -2,1 -6,2 -2,3 -0,1 0,8 3,8 3,2 35 19 48 26 E 1035,1 53 0 0,0
24.02.2018 21:00:00 -2,2 -6,6 -3,0 0,0 0,9 3,8 3,2 37 20 50 27 E 1035,1 55 0 0,0
24.02.2018 20:00:00 -2,3 -7,8 -3,4 0,0 0,9 3,8 3,2 45 24 55 30 E 1034,9 61 0 0,0
24.02.2018 19:00:00 -1,9 -7,0 -2,5 0,1 0,9 3,8 3,2 43 23 60 33 ENE 1035,1 55 0 0,0
24.02.2018 18:00:00 -1,9 -6,5 -2,5 0,1 0,9 3,8 3,2 37 20 48 26 E 1034,8 50 0 0,0
24.02.2018 17:00:00 -1,8 -6,3 -1,8 0,1 0,9 3,8 3,2 44 24 56 30 ENE 1034,9 26 0 0,0
24.02.2018 16:00:00 -1,4 -6,1 -1,2 0,2 0,9 3,8 3,2 36 20 54 29 E 1034,5 43 41 0,0
24.02.2018 15:00:00 -1,5 -5,7 -0,8 0,2 0,9 3,8 3,2 20 11 62 33 E 1034,5 32 33 0,1
24.02.2018 14:00:00 -1,2 -5,4 -0,7 0,1 0,9 3,8 3,3 29 16 57 31 E 1034,2 27 36 0,0
24.02.2018 13:00:00 -1,0 -7,0 -1,1 0,1 0,9 3,8 3,2 46 25 57 31 ENE 1034,2 58 34 0,0
24.02.2018 12:00:00 0,0 -6,8 1,7 0,1 0,9 3,8 3,2 41 22 59 32 E 1034,1 25 23 0,0
24.02.2018 11:00:00 -1,1 -6,6 -0,8 0,1 0,9 3,8 3,3 48 26 63 34 ENE 1034,0 38 15 0,0
24.02.2018 10:00:00 -1,2 -5,3 -0,8 0,1 0,9 3,8 3,3 52 28 69 37 E 1033,5 15 18 0,0
24.02.2018 09:00:00 -1,0 -6,1 -1,5 0,1 0,9 3,8 3,3 50 27 71 38 ENE 1033,2 43 25 0,0
24.02.2018 08:00:00 -0,8 -5,9 -1,1 0,1 0,9 3,8 3,2 51 28 67 36 ENE 1032,6 25 0 0,0
24.02.2018 07:00:00 -1,1 -6,5 -1,3 0,1 0,9 3,8 3,3 46 25 59 32 ENE 1032,4 16 0 0,0
24.02.2018 06:00:00 -0,8 -6,2 -1,1 0,1 1,0 3,9 3,3 48 26 61 33 ENE 1031,9 49 0 0,0
24.02.2018 05:00:00 -0,5 -5,4 -0,8 0,2 1,0 3,9 3,4 44 24 61 33 ENE 1031,3 31 0 0,0
24.02.2018 04:00:00 -0,4 -4,4 -0,6 0,2 1,0 3,9 3,4 46 25 59 32 ENE 1030,7 20 0 0,0
24.02.2018 03:00:00 0,1 -4,7 -0,2 0,2 1,0 3,9 3,4 42 23 57 31 ENE 1030,2 54 0 0,0
24.02.2018 02:00:00 0,3 -3,9 0,0 0,2 1,0 3,9 3,3 41 22 55 30 E 1030,1 50 0 0,0
24.02.2018 01:00:00 0,3 -3,3 0,1 0,2 1,0 3,9 3,4 38 20 50 27 ENE 1029,7 60 0 0,0
24.02.2018 00:00:00 0,2 -2,5 0,1 0,2 1,0 3,9 3,4 36 19 46 25 ENE 1029,4 47 0 0,0
23.02.2018 23:00:00 -0,1 -2,0 -0,3 0,2 1,1 3,9 3,3 25 13 41 22 NE 1029,4 34 0 0,0
23.02.2018 22:00:00 -0,3 -2,5 -0,4 0,2 1,1 3,9 3,3 28 15 43 23 NE 1029,4 25 0 0,0
23.02.2018 21:00:00 -0,1 -2,7 -0,2 0,2 1,1 3,9 3,3 16 9 38 20 NNE 1029,0 28 0 0,0
23.02.2018 20:00:00 0,5 -2,4 0,2 0,1 1,2 3,9 3,4 15 8 31 17 NNE 1028,6 20 0 0,0
23.02.2018 19:00:00 0,1 -4,2 -0,3 0,2 1,2 3,9 3,4 11 6 18 10 NNW 1028,8 45 0 0,0
23.02.2018 18:00:00 -0,3 -5,2 -0,8 0,6 1,2 3,9 3,4 9 5 13 7 NW 1028,6 43 0 0,0
23.02.2018 17:00:00 -0,4 -6,9 -0,3 1,4 1,0 3,9 3,4 8 4 15 8 WNW 1028,7 59 51 0,0
23.02.2018 16:00:00 0,0 -7,1 2,5 0,9 0,9 3,9 3,4 6 3 11 6 N 1028,8 39 60 0,0
23.02.2018 15:00:00 0,2 -6,7 2,9 0,0 0,8 3,9 3,5 6 3 10 5 N 1029,0 50 60 0,0
23.02.2018 14:00:00 0,2 -7,6 4,0 0,0 0,8 3,9 3,4 6 3 13 7 NE 1029,2 43 60 0,0
23.02.2018 13:00:00 -0,1 -6,6 2,9 -0,1 0,8 3,9 3,4 10 6 18 10 NE 1029,6 41 60 0,0
23.02.2018 12:00:00 0,2 -6,2 3,3 -0,1 0,8 3,9 3,3 5 3 19 10 E 1029,6 42 60 0,0
23.02.2018 11:00:00 0,2 -5,8 2,1 -0,1 0,8 3,9 3,3 12 6 22 12 E 1029,7 27 60 0,0
23.02.2018 10:00:00 -0,5 -6,0 1,2 -0,4 0,9 3,9 3,3 8 4 22 12 E 1029,5 25 60 0,0
23.02.2018 09:00:00 -1,2 -6,2 -2,3 -0,6 0,9 3,9 3,2 11 6 23 12 E 1029,5 30 60 0,0
23.02.2018 08:00:00 -2,4 -6,6 -3,8 -0,6 0,9 3,9 3,3 9 5 24 13 E 1029,1 29 24 0,0
23.02.2018 07:00:00 -2,7 -6,6 -4,3 -0,5 1,0 3,9 3,3 9 5 28 15 E 1028,8 27 0 0,0
23.02.2018 06:00:00 -2,4 -6,4 -3,4 -0,2 1,0 3,9 3,3 13 7 30 16 E 1028,3 27 0 0,0
23.02.2018 05:00:00 -2,2 -6,0 -2,9 0,0 1,0 3,9 3,3 8 5 32 18 E 1028,3 25 0 0,0
23.02.2018 04:00:00 -1,9 -6,8 -3,0 0,0 1,1 3,9 3,3 25 13 39 21 E 1028,1 37 0 0,0
23.02.2018 03:00:00 -1,7 -6,8 -2,5 0,1 1,1 3,9 3,3 21 11 42 23 E 1028,3 36 0 0,0
23.02.2018 02:00:00 -1,8 -6,4 -2,9 0,1 1,1 3,9 3,4 22 12 42 23 E 1028,6 39 0 0,0
23.02.2018 01:00:00 -1,5 -6,0 -2,1 0,2 1,2 3,9 3,3 22 12 41 22 E 1028,8 40 0 0,0
23.02.2018 00:00:00 -1,4 -6,0 -2,2 0,2 1,2 3,9 3,4 22 12 44 24 E 1028,9 39 0 0,0
22.02.2018 23:00:00 -1,1 -5,3 -1,8 0,2 1,3 3,9 3,4 19 10 41 22 E 1028,9 38 0 0,0
22.02.2018 22:00:00 -0,8 -5,0 -1,3 0,3 1,3 3,9 3,4 20 11 37 20 E 1028,7 33 0 0,0
22.02.2018 21:00:00 -0,5 -4,4 -1,1 0,3 1,4 3,9 3,3 14 7 36 19 E 1028,4 28 0 0,0
22.02.2018 20:00:00 -0,1 -4,0 -0,4 0,4 1,5 3,9 3,3 10 6 31 17 E 1028,2 28 0 0,0
22.02.2018 19:00:00 0,0 -3,9 -0,2 0,5 1,6 3,9 3,3 9 5 36 20 E 1027,9 28 0 0,0
22.02.2018 18:00:00 0,3 -2,7 0,1 0,8 1,6 3,9 3,4 9 5 30 16 E 1027,7 24 10 0,0
22.02.2018 17:00:00 0,1 -1,5 -0,2 1,6 1,6 3,9 3,4 6 4 34 18 ENE 1027,4 17 0 0,0
22.02.2018 16:00:00 0,7 -1,6 1,1 2,3 1,4 3,9 3,4 11 6 36 20 E 1027,3 35 22 0,0
22.02.2018 15:00:00 0,9 -2,2 0,6 1,9 1,2 3,9 3,4 24 13 40 22 E 1027,3 47 0 0,0
22.02.2018 14:00:00 1,7 -2,4 2,4 2,2 1,0 4,0 3,3 25 13 39 21 E 1027,5 52 18 0,0
22.02.2018 13:00:00 1,8 -2,5 3,3 0,2 0,9 4,0 3,3 20 11 35 19 E 1027,7 46 32 0,0
22.02.2018 12:00:00 2,1 -1,2 3,3 0,1 0,9 4,0 3,3 24 13 34 19 E 1027,7 37 37 0,0
22.02.2018 11:00:00 1,7 -2,0 2,2 0,1 0,9 4,0 3,3 24 13 41 22 ENE 1027,6 52 42 0,0
22.02.2018 10:00:00 0,9 -0,6 0,5 0,1 1,0 4,0 3,3 29 15 41 22 NE 1027,5 30 25 0,0
22.02.2018 09:00:00 0,7 -1,8 -0,3 0,1 1,0 4,0 3,3 26 14 37 20 NE 1027,4 35 32 0,0
22.02.2018 08:00:00 0,5 -1,4 -0,3 0,1 1,0 4,0 3,3 29 16 38 21 NE 1027,2 34 0 0,0
22.02.2018 07:00:00 0,7 -0,9 0,0 0,1 1,0 4,0 3,3 29 16 39 21 ENE 1027,0 26 0 0,0
22.02.2018 06:00:00 0,6 -1,2 0,0 0,1 1,0 4,0 3,3 26 14 34 18 ENE 1027,0 23 0 0,1
22.02.2018 05:00:00 0,5 -0,1 0,1 0,1 1,0 4,0 3,3 24 13 33 18 ENE 1026,9 5 0 0,0
22.02.2018 04:00:00 0,7 -0,5 0,1 0,1 1,0 4,0 3,3 12 7 24 13 NE 1027,1 8 0 0,1
22.02.2018 03:00:00 0,8 -0,6 0,0 0,1 1,0 4,0 3,3 7 4 14 8 NE 1027,2 8 0 0,0
22.02.2018 02:00:00 1,1 -0,9 0,1 0,1 1,0 4,0 3,3 5 3 12 7 NNE 1027,3 9 0 0,2
22.02.2018 01:00:00 0,5 -1,1 -0,1 0,1 1,0 4,0 3,3 11 6 13 7 W 1027,5 7 0 0,0
22.02.2018 00:00:00 0,0 -1,3 -1,0 0,1 1,0 4,0 3,3 12 6 16 8 W 1027,6 8 0 0,0
21.02.2018 23:00:00 -0,3 -1,7 -1,1 0,1 1,0 4,0 3,3 10 6 14 8 W 1027,5 8 0 0,0
21.02.2018 22:00:00 -0,7 -2,0 -2,3 0,1 1,0 4,0 3,3 11 6 13 7 W 1027,7 7 0 0,0
21.02.2018 21:00:00 -0,4 -1,9 -1,8 0,1 1,0 4,0 3,2 11 6 13 7 W 1027,6 8 0 0,0
21.02.2018 20:00:00 0,0 -2,0 -2,5 0,1 1,0 4,0 3,3 8 4 11 6 WNW 1027,4 10 0 0,0
21.02.2018 19:00:00 0,7 -2,2 -1,5 0,1 1,0 4,0 3,3 8 4 11 6 NNW 1027,2 16 0 0,0
21.02.2018 18:00:00 0,7 -2,6 -1,8 0,1 1,1 4,0 3,4 9 5 12 7 NW 1026,9 17 0 0,0
21.02.2018 17:00:00 1,1 -2,1 -0,2 0,1 1,1 4,0 3,4 9 5 15 8 NW 1026,8 17 0 0,0
21.02.2018 16:00:00 1,4 -1,4 0,6 0,1 1,1 4,0 3,4 6 4 13 7 NW 1026,9 20 48 0,0
21.02.2018 15:00:00 1,2 -1,0 1,8 0,1 1,1 4,0 3,4 4 2 9 5 NNW 1027,1 25 4 0,0
21.02.2018 14:00:00 1,4 -0,7 1,9 0,1 1,1 4,0 3,3 6 3 9 5 NNE 1027,4 33 0 0,0
21.02.2018 13:00:00 0,9 -0,5 0,6 0,1 1,1 4,0 3,3 7 4 18 10 ENE 1027,8 20 0 0,0
21.02.2018 12:00:00 -0,4 -0,8 -0,3 0,1 1,1 4,0 3,3 11 6 31 17 NE 1027,8 1,3 0 0,7
21.02.2018 11:00:00 1,7 -0,4 1,9 0,1 1,2 4,0 3,3 6 3 24 13 E 1027,4 27 0 0,0
21.02.2018 10:00:00 1,2 -0,3 0,8 0,1 1,2 4,0 3,3 11 6 22 12 E 1027,3 13 0 0,0
21.02.2018 09:00:00 1,2 -0,4 0,9 0,1 1,2 4,0 3,3 13 7 19 11 ENE 1027,0 32 0 0,0
21.02.2018 08:00:00 0,8 -0,4 -0,1 0,1 1,2 4,0 3,3 16 9 21 11 ENE 1026,7 32 0 0,0
21.02.2018 07:00:00 0,7 -0,2 0,1 0,1 1,3 4,0 3,4 18 10 27 15 ENE 1026,6 22 0 0,1
21.02.2018 06:00:00 1,3 -0,4 0,4 0,1 1,3 4,0 3,4 6 3 12 6 N 1026,6 10 0 0,0
21.02.2018 05:00:00 1,1 -0,9 -0,6 0,1 1,4 4,0 3,4 6 3 14 8 NNE 1026,7 13 0 0,0
21.02.2018 04:00:00 0,3 -1,3 -2,9 0,1 1,4 4,0 3,4 6 3 16 8 NNE 1026,7 9 0 0,0
21.02.2018 03:00:00 0,4 -1,3 -3,8 0,2 1,5 4,0 3,4 5 3 12 6 ENE 1026,6 10 0 0,0
21.02.2018 02:00:00 0,9 -1,5 -2,4 0,2 1,5 4,0 3,4 7 4 14 8 ENE 1026,7 11 0 0,0
21.02.2018 01:00:00 1,2 -1,8 -1,6 0,2 1,6 4,0 3,4 5 3 24 13 ENE 1026,7 13 0 0,0
21.02.2018 00:00:00 1,2 -1,6 -0,5 0,3 1,7 4,0 3,4 19 10 32 17 E 1026,6 12 0 0,0
20.02.2018 23:00:00 1,6 -1,6 0,3 0,3 1,8 4,0 3,4 22 12 33 18 ENE 1026,3 13 0 0,0
20.02.2018 22:00:00 1,3 -2,0 -0,5 0,4 1,9 4,0 3,4 26 14 36 19 E 1025,9 14 0 0,0
20.02.2018 21:00:00 1,5 -1,8 -0,2 0,4 2,1 4,0 3,4 24 13 35 19 E 1025,6 13 0 0,0
20.02.2018 20:00:00 1,3 -2,5 -0,4 0,5 2,3 4,0 3,4 23 12 35 19 E 1025,3 21 0 0,0
20.02.2018 19:00:00 1,4 -2,4 -0,2 0,2 2,5 4,0 3,5 15 8 32 17 E 1025,0 21 0 0,0
20.02.2018 18:00:00 1,4 -2,9 -0,3 1,0 2,7 4,0 3,5 14 8 32 18 E 1024,6 23 18 0,0
20.02.2018 17:00:00 1,8 -3,3 0,8 2,5 2,7 4,0 3,5 16 9 34 18 E 1024,2 24 60 0,0
20.02.2018 16:00:00 2,3 -2,9 3,2 4,2 2,5 4,0 3,5 18 10 36 19 E 1024,0 22 60 0,0
20.02.2018 15:00:00 2,7 -2,6 4,5 5,0 2,1 4,0 3,5 15 8 31 17 E 1024,1 18 60 0,0
20.02.2018 14:00:00 3,0 -2,4 5,1 5,1 1,7 4,0 3,5 9 5 30 16 E 1024,1 18 60 0,0
20.02.2018 13:00:00 3,1 -2,3 5,1 4,0 1,3 4,0 3,4 10 5 30 16 ENE 1023,9 17 60 0,0
20.02.2018 12:00:00 3,2 -1,8 5,1 0,9 1,2 4,0 3,4 6 4 25 13 ENE 1024,0 12 51 0,0
20.02.2018 11:00:00 2,2 -1,4 2,6 0,2 1,2 4,0 3,4 7 4 28 15 ENE 1023,7 9 0 0,0
20.02.2018 10:00:00 1,7 -1,4 1,6 0,2 1,2 4,0 3,4 10 5 30 16 E 1023,6 8 0 0,0
20.02.2018 09:00:00 1,6 -1,2 1,3 0,2 1,3 4,0 3,4 8 4 25 13 E 1023,4 7 0 0,0
20.02.2018 08:00:00 1,1 -1,7 0,0 0,2 1,3 4,0 3,5 7 4 25 13 E 1023,1 7 0 0,0
20.02.2018 07:00:00 0,8 -1,2 -0,3 0,2 1,3 4,0 3,5 8 4 26 14 ENE 1022,8 5 0 0,0
20.02.2018 06:00:00 1,2 -1,8 0,2 0,2 1,3 4,0 3,5 14 7 29 16 E 1022,6 8 0 0,0
20.02.2018 05:00:00 1,0 -1,8 -0,1 0,2 1,4 4,0 3,5 11 6 31 17 E 1022,5 7 0 0,0
20.02.2018 04:00:00 1,0 -1,6 -0,1 0,2 1,4 4,0 3,5 11 6 31 17 E 1022,4 6 0 0,0
20.02.2018 03:00:00 1,4 -1,1 0,5 0,2 1,5 4,0 3,5 14 8 31 17 E 1022,2 6 0 0,0
20.02.2018 02:00:00 1,5 -1,3 0,4 0,2 1,5 4,0 3,5 16 9 25 13 ESE 1022,0 7 0 0,0
20.02.2018 01:00:00 1,4 -1,6 0,2 -0,3 1,7 4,0 3,5 19 11 27 14 ESE 1022,1 7 0 0,0
20.02.2018 00:00:00 1,7 -1,8 0,9 0,0 1,8 4,0 3,5 21 11 28 15 SE 1021,9 8 0 0,0
19.02.2018 23:00:00 1,9 -1,5 1,0 0,3 1,9 4,0 3,5 18 10 28 15 SE 1021,6 7 0 0,0
19.02.2018 22:00:00 2,2 -1,2 1,3 0,6 2,0 4,0 3,5 15 8 22 12 SE 1021,4 8 0 0,0
19.02.2018 21:00:00 2,6 -1,4 1,6 0,9 2,1 4,0 3,5 15 8 19 11 SE 1021,2 11 0 0,0
19.02.2018 20:00:00 2,5 -0,8 1,8 1,1 2,2 4,0 3,5 12 7 18 10 SE 1021,2 10 0 0,0
19.02.2018 19:00:00 2,5 -0,9 1,6 1,4 2,3 4,0 3,5 13 7 18 10 SSE 1021,1 9 0 0,0
19.02.2018 18:00:00 2,4 -1,1 1,8 1,9 2,4 4,0 3,5 10 5 19 11 S 1020,8 11 0 0,0
19.02.2018 17:00:00 2,6 -1,0 2,0 2,6 2,3 4,0 3,5 13 7 21 11 S 1020,7 12 0 0,0
19.02.2018 16:00:00 2,7 -1,6 2,7 3,7 2,1 4,0 3,5 18 10 23 12 S 1020,8 13 13 0,0
19.02.2018 15:00:00 3,0 -1,1 3,7 3,9 1,8 4,0 3,5 17 9 21 11 S 1020,7 13 34 0,0
19.02.2018 14:00:00 2,7 -1,5 4,0 3,6 1,5 4,0 3,5 11 6 16 9 S 1020,9 11 56 0,0
19.02.2018 13:00:00 2,8 -1,6 4,5 2,4 1,3 4,0 3,4 11 6 19 11 S 1021,2 12 53 0,0
19.02.2018 12:00:00 2,7 -1,8 4,8 0,2 1,3 4,0 3,4 14 8 23 12 SSW 1021,4 15 37 0,0
19.02.2018 11:00:00 1,3 -2,1 1,4 0,2 1,3 4,0 3,4 20 11 29 16 SSW 1021,6 11 54 0,0
19.02.2018 10:00:00 1,0 -2,4 1,2 0,2 1,3 4,0 3,4 21 12 31 17 SSW 1021,8 14 23 0,0

tt = Température de l'air
td = dewpoint
tt 5cm = Température de l'air 5cm
tt -5cm = Température de l'air -5cm
tt -20cm = Température de l'air -20cm
tt -100cm = Température de l'air -100cm
tw = water temperature
ff = Vitesse du vent
fx = gusts
dd = Direction du vent
ppp = reduced air pressure
vv = visibility
sd = Ensoleillement
rr = Quantités de précipitations

stations d'obs. à proximité